Date,TemperatureHighF,TemperatureAvgF,TemperatureLowF,DewpointHighF,DewpointAvgF,DewpointLowF,HumidityHigh,HumidityAvg,HumidityLow,PressureMaxIn,PressureMinIn,WindSpeedMaxMPH,WindSpeedAvgMPH,GustSpeedMaxMPH,PrecipitationSumIn
2013-1-1,19.6,6.3,-1.5,-0.9,-11.5,-20.9,51,43,33,30.22,30.11,9,6,11,0.00
2013-1-2,23.4,17.8,10.0,7.8,-1.0,-10.5,59,44,30,30.14,30.02,11,6,13,0.00
2013-1-3,26.4,20.4,9.3,10.6,6.6,-3.2,63,55,48,30.19,30.02,12,8,15,0.00
2013-1-4,29.3,17.4,7.7,6.9,1.7,-4.7,57,50,38,30.16,30.05,15,8,18,0.00
2013-1-5,35.4,23.4,7.5,30.1,12.7,-5.1,85,64,47,30.19,29.84,16,7,19,0.00
2013-1-6,34.7,24.6,10.4,21.5,8.5,-2.0,74,51,37,30.25,29.84,15,8,21,0.00
2013-1-7,34.3,24.0,10.6,15.2,9.4,3.5,73,55,37,30.25,30.02,15,8,24,0.00
2013-1-8,38.1,29.4,14.2,21.0,16.1,8.0,81,58,41,30.08,29.90,22,6,23,0.00
2013-1-9,38.5,31.6,16.7,21.7,14.5,3.2,69,50,36,30.43,29.90,25,10,26,0.00
2013-1-10,38.7,28.2,12.4,35.6,16.9,3.7,100,64,43,30.46,29.87,15,5,19,0.00
2013-1-11,47.1,39.5,35.2,46.4,39.3,35.2,100,100,81,29.87,29.57,14,1,15,0.00
2013-1-12,47.8,35.0,23.0,40.6,18.0,3.0,79,50,40,29.99,29.57,22,12,29,0.00
2013-1-13,22.8,17.2,12.4,4.5,-2.7,-6.8,45,41,33,30.19,29.93,13,8,19,0.00
2013-1-14,24.1,14.6,7.3,0.0,-5.1,-11.4,50,41,33,30.40,30.19,13,5,15,0.00
2013-1-15,28.4,18.5,8.1,5.0,-0.4,-7.1,60,43,32,30.40,30.05,15,5,17,0.00
2013-1-16,34.0,25.8,15.8,20.2,8.2,-2.2,62,47,36,30.05,29.75,24,10,28,0.00
2013-1-17,27.1,19.7,12.2,4.7,-4.5,-9.6,43,34,28,30.37,30.05,15,6,21,0.00
2013-1-18,40.1,28.7,11.1,20.0,9.8,-7.0,51,45,38,30.40,29.81,28,12,35,0.00
2013-1-19,44.2,35.7,13.6,23.4,16.1,-10.1,62,45,27,29.93,29.63,28,11,34,0.00
2013-1-20,17.4,10.4,5.9,-8.8,-14.0,-17.1,33,32,29,30.28,29.96,23,9,36,0.00
2013-1-21,10.0,2.8,-4.5,-15.2,-21.6,-28.1,30,30,30,30.25,30.11,19,9,25,0.00
2013-1-22,8.1,0.1,-7.6,-17.0,-24.0,-30.8,30,30,30,30.34,30.25,13,5,16,0.00
2013-1-23,18.1,9.9,1.2,0.5,-11.4,-23.0,50,37,30,30.37,30.05,17,8,26,0.00
2013-1-24,15.8,6.5,-1.5,-2.2,-9.2,-16.4,48,48,41,30.61,30.31,12,5,17,0.00
2013-1-25,24.6,19.0,13.6,5.5,1.0,-4.6,61,45,36,30.31,29.90,15,9,18,0.00
2013-1-26,24.1,16.5,6.8,2.2,-3.9,-10.5,44,40,30,30.34,30.16,11,5,14,0.00
2013-1-27,33.6,27.6,22.5,33.6,14.9,1.3,100,62,38,30.28,29.84,19,10,24,0.00
2013-1-28,42.6,35.5,32.4,36.5,28.8,17.6,100,79,42,29.93,29.78,8,3,13,0.00
2013-1-29,54.9,43.0,36.1,54.3,42.1,29.7,100,97,76,29.75,29.49,15,7,20,0.00
2013-1-30,37.4,29.1,15.8,36.9,21.5,0.9,98,74,50,29.57,29.31,16,2,17,0.00
2013-1-31,15.4,10.1,1.0,0.6,-8.6,-19.1,51,42,35,30.11,29.60,17,7,23,0.00
2013-2-1,5.2,0.6,-5.6,-15.4,-19.5,-25.2,37,37,37,30.28,30.11,13,8,17,0.00
2013-2-2,14.5,6.6,-2.9,-8.1,-15.3,-24.9,37,35,32,30.11,29.99,12,4,13,0.00
2013-2-3,23.5,12.8,0.0,2.3,-8.8,-22.3,58,37,30,30.02,29.93,15,5,22,0.00
2013-2-4,20.1,12.0,4.1,3.7,-6.3,-20.4,63,45,29,29.99,29.90,11,4,14,0.00
2013-2-5,29.5,18.1,2.1,11.6,-1.0,-22.2,66,43,30,30.08,29.75,15,8,16,0.00
2013-2-6,32.0,21.8,-4.4,23.0,6.9,-18.3,81,52,43,30.19,30.05,17,6,17,0.00
2013-2-7,35.2,32.1,22.3,31.5,25.4,13.0,88,76,59,30.08,29.90,15,5,15,0.00
2013-2-8,30.2,18.7,-3.3,11.4,0.4,-19.7,62,45,31,30.37,30.08,0,0,0,0.00
2013-2-9,28.9,20.6,-3.8,16.3,7.6,-20.2,83,58,44,30.37,30.05,19,5,22,0.00
2013-2-10,37.9,27.8,13.6,36.6,22.4,7.8,95,80,60,30.05,29.49,24,8,25,0.00
2013-2-11,34.2,29.7,25.5,20.5,12.0,5.6,62,48,39,29.96,29.49,30,14,30,0.00
2013-2-12,28.6,23.7,20.7,12.1,6.1,2.5,62,47,38,30.05,29.84,19,8,19,0.00
2013-2-13,37.0,28.7,15.6,22.6,13.6,7.3,73,54,38,29.84,29.66,13,5,13,0.00
2013-2-14,35.8,34.6,32.7,31.8,24.4,14.1,86,67,44,29.75,29.54,24,8,24,0.00
2013-2-16,13.1,8.2,3.9,-12.5,-16.8,-20.6,30,30,30,30.16,30.14,4,0,4,0.00
2013-2-17,23.9,13.4,-1.3,2.1,-10.6,-25.2,40,33,30,30.16,29.96,15,5,15,0.00
2013-2-18,23.4,23.4,23.4,1.5,1.5,1.5,38,38,38,29.96,29.96,12,12,13,0.00
2013-2-21,26.1,24.9,22.8,20.9,14.9,8.9,85,66,49,30.22,30.05,23,12,23,0.00
2013-2-22,33.3,27.4,23.5,21.3,16.3,11.1,83,63,45,30.05,29.78,23,7,23,0.00
2013-2-23,30.2,25.3,19.4,12.9,8.9,4.4,59,49,38,29.93,29.81,17,10,17,0.00
2013-2-24,38.5,24.4,11.3,12.7,6.7,0.5,67,48,32,30.11,29.93,10,3,10,0.00
2013-2-25,42.6,26.1,10.2,14.8,8.7,-0.2,63,49,29,30.14,30.02,8,2,9,0.00
2013-2-26,34.0,31.0,26.6,28.4,18.1,10.9,91,60,38,30.02,29.63,24,14,32,0.00
2013-2-27,34.2,31.7,28.8,28.4,22.9,18.4,85,70,56,29.78,29.63,20,11,24,0.00
2013-2-28,36.1,31.6,24.3,29.0,14.3,5.2,86,50,37,30.11,29.78,17,9,21,0.00
2013-3-1,26.8,18.2,8.8,11.1,0.1,-10.1,63,45,34,30.22,30.11,10,4,18,0.00
2013-3-2,31.8,14.2,3.9,3.2,-4.9,-12.2,47,42,29,30.22,30.14,10,5,13,0.00
2013-3-3,6.8,4.9,2.8,-15.1,-16.7,-18.6,35,35,35,30.11,30.08,4,1,4,0.00
2013-3-4,35.6,21.2,2.7,13.2,0.7,-18.8,54,40,34,30.11,30.02,17,5,17,0.00
2013-3-5,28.9,28.4,27.7,16.0,15.3,13.2,58,57,54,30.05,29.96,13,8,13,0.00
2013-3-6,28.0,27.0,25.5,8.4,7.4,6.4,44,43,42,30.28,30.28,13,7,13,0.00
2013-3-7,36.5,21.9,7.2,8.4,3.0,-5.2,62,45,30,30.40,30.28,10,3,10,0.00
2013-3-8,38.5,28.9,10.0,16.1,11.3,-3.3,68,49,35,30.43,30.25,13,5,13,0.00
2013-3-9,39.6,33.1,25.9,26.8,17.5,11.6,73,53,38,30.25,29.87,24,10,24,0.00
2013-3-10,41.5,38.3,36.7,41.5,37.2,32.7,100,96,83,29.81,29.63,0,0,0,0.00
2013-3-11,36.9,35.4,34.7,36.1,34.8,33.2,100,98,87,29.63,29.57,0,0,0,0.00
2013-3-12,28.4,27.2,24.3,12.3,7.5,4.0,58,43,37,29.99,29.90,0,0,0,0.00
2013-3-13,36.0,26.3,18.3,8.1,2.3,-3.3,51,36,26,30.28,29.99,20,7,20,0.00
2013-3-14,33.4,29.7,24.4,17.7,11.9,2.6,70,48,31,30.25,30.05,13,6,13,0.00
2013-3-15,37.2,30.6,23.2,29.0,21.4,14.7,84,69,46,30.08,29.84,10,3,10,0.00
2013-3-16,35.4,28.4,22.8,9.5,5.9,2.6,49,38,33,30.14,29.99,0,0,0,0.00
2013-3-17,24.6,22.4,21.0,5.9,3.0,1.3,51,43,38,30.14,29.99,8,2,8,0.00
2013-3-18,33.1,27.5,21.0,24.4,16.2,5.4,81,62,52,30.02,29.60,12,4,12,0.00
2013-3-19,19.9,19.0,17.8,-5.8,-6.6,-7.7,31,31,31,30.02,30.02,17,8,17,0.00
2013-3-20,22.6,14.6,8.4,-3.6,-9.8,-14.8,33,32,30,30.05,30.02,22,8,22,0.00
2013-3-22,35.8,27.9,16.7,6.9,2.4,-0.9,45,33,28,30.05,30.02,5,2,7,0.00
2013-3-23,33.1,18.1,14.5,8.0,3.2,-0.9,63,52,31,30.14,30.05,6,0,6,0.00
2013-3-26,34.3,34.0,33.6,10.3,9.9,8.1,37,36,33,30.22,30.22,8,4,9,0.00
2013-3-27,40.5,34.5,29.1,13.7,10.0,6.7,42,36,27,30.28,30.22,10,4,10,0.00
2013-3-28,42.1,32.0,25.9,11.8,6.8,3.8,39,34,27,30.34,30.28,8,4,8,0.00
2013-3-29,50.4,36.3,21.9,16.3,11.8,6.2,59,38,25,30.31,30.22,8,2,8,0.00
2013-3-31,48.7,41.6,38.7,38.7,28.2,16.3,87,62,30,29.81,29.72,23,8,23,0.00
2013-4-3,45.1,39.6,32.5,12.3,9.4,4.5,38,28,26,30.40,30.25,12,2,12,0.00
2013-4-4,58.5,42.4,31.1,22.2,12.8,5.1,37,30,23,30.25,29.93,17,7,22,0.00
2013-4-5,49.6,39.0,29.5,15.3,11.1,6.8,41,32,25,30.22,30.02,14,3,14,0.00
2013-4-6,61.2,45.7,34.0,45.5,20.1,4.3,80,37,25,30.14,29.54,28,10,28,0.00
2013-4-7,54.7,44.3,36.5,36.9,21.1,16.7,60,41,26,29.96,29.54,22,7,28,0.00
2013-4-8,51.1,43.0,36.1,43.2,30.5,18.5,89,63,45,29.99,29.63,22,6,22,0.00
2013-4-9,43.3,39.9,37.8,41.0,35.9,26.5,100,86,60,30.02,29.87,110,2,126,0.00
2013-4-10,38.8,36.3,33.6,35.1,30.0,22.3,91,78,54,30.08,29.90,0,0,0,0.00
2013-4-11,37.6,37.0,36.1,32.8,28.8,25.0,84,72,61,29.93,29.69,0,0,0,0.00
2013-4-13,39.9,36.1,31.6,15.1,12.5,10.2,47,37,32,29.99,29.84,0,0,0,0.00
2013-4-14,51.4,38.7,29.5,33.6,23.0,12.2,73,54,38,29.99,29.57,15,0,17,0.00
2013-4-15,60.4,48.7,41.0,50.9,32.7,17.1,100,59,23,29.96,29.54,30,9,32,0.00
2013-4-16,55.2,43.8,33.6,26.1,18.1,13.3,59,37,24,30.28,29.96,19,6,19,0.00
2013-4-17,43.9,40.8,37.9,41.0,28.0,19.3,90,62,41,30.31,29.87,24,7,24,0.00
2013-4-18,60.6,47.4,39.4,60.6,41.7,20.7,100,82,46,29.90,29.31,37,5,37,0.00
2013-4-19,40.6,35.8,30.9,21.7,14.3,6.0,50,41,30,29.90,29.37,31,15,31,0.00
2013-4-20,47.5,35.7,24.8,13.9,7.7,1.8,47,31,25,30.37,29.90,19,6,19,0.00
2013-4-21,52.5,40.9,30.4,18.6,14.5,9.4,50,35,24,30.49,30.25,29,12,29,0.00
2013-4-22,66.7,53.0,42.8,28.1,20.4,16.4,36,28,21,30.25,30.05,22,9,22,0.00
2013-4-23,52.3,44.0,37.8,38.7,21.2,13.1,64,41,27,30.05,30.05,20,8,20,0.00
2013-4-24,55.9,43.6,32.4,19.1,13.9,10.4,46,31,23,30.05,30.05,27,7,27,0.00
2013-4-25,52.9,44.3,36.9,28.7,17.2,10.3,70,35,24,30.05,30.05,24,8,24,0.00
2013-4-26,68.9,53.8,37.0,29.5,21.3,10.9,38,28,21,30.05,30.05,32,12,32,0.00
2013-4-27,64.9,55.4,46.4,36.4,29.3,23.1,65,39,24,30.05,30.05,11,5,16,0.00
2013-4-28,72.5,57.0,38.7,42.0,30.7,24.1,84,42,21,30.05,30.05,6,2,10,0.00
2013-4-29,68.4,60.0,51.3,43.4,36.8,31.2,71,44,26,30.05,30.05,15,8,19,0.00
2013-4-30,85.5,71.7,59.5,53.2,40.5,30.7,79,37,19,30.05,30.05,30,12,33,0.00
2013-5-1,81.1,67.6,54.1,37.7,31.9,23.2,39,27,20,30.05,30.05,17,6,21,0.00
2013-5-2,55.0,46.7,39.2,36.3,25.5,19.0,70,45,29,30.05,30.05,15,10,20,0.00
2013-5-3,49.6,42.5,36.3,46.4,36.7,24.6,89,80,57,30.05,30.05,14,8,20,0.00
2013-5-4,71.6,58.7,48.6,45.5,35.1,26.7,85,46,22,30.05,30.05,12,5,15,0.00
2013-5-5,74.5,59.9,44.4,43.5,30.9,21.7,82,37,21,30.05,30.05,12,4,16,0.00
2013-5-6,75.9,60.9,44.4,33.3,30.0,22.6,61,34,20,30.05,30.05,9,3,12,0.00
2013-5-7,79.3,65.8,51.6,36.0,29.5,21.7,44,26,20,30.05,30.05,9,2,13,0.00
2013-5-8,81.7,65.2,47.1,47.1,33.5,26.4,80,34,20,30.05,30.05,9,2,15,0.00
2013-5-9,66.9,58.7,48.7,57.3,42.3,28.7,87,58,30,30.05,30.05,20,5,23,0.00
2013-5-10,52.2,46.3,42.8,43.0,36.1,30.0,87,69,44,30.05,30.05,18,8,25,0.00
2013-5-11,54.5,48.1,40.6,46.0,26.9,11.1,99,50,24,30.05,30.05,24,8,32,0.00
2013-5-12,55.9,45.4,35.8,19.1,13.5,7.4,39,27,23,30.05,30.05,19,6,23,0.00
2013-5-13,64.6,47.7,29.5,30.3,20.5,15.0,77,38,21,30.05,30.05,9,4,15,0.00
2013-5-15,65.7,61.3,57.2,24.7,23.5,21.7,28,23,21,29.96,28.97,6,2,6,0.00
2013-5-16,85.3,66.5,49.1,42.3,30.3,20.5,61,27,19,30.11,29.96,17,3,17,0.00
2013-5-17,59.4,55.0,48.4,47.8,32.6,18.0,89,46,23,30.22,30.08,21,5,21,0.00
2013-5-18,78.6,65.1,52.3,49.4,41.2,28.8,76,43,27,30.16,30.05,15,5,15,0.00
2013-5-19,85.3,70.1,59.2,55.5,47.6,34.8,80,48,22,30.08,29.75,46,8,46,0.00
2013-5-20,80.4,72.2,62.6,61.2,42.7,33.4,94,39,21,29.90,29.75,26,8,26,0.00
2013-5-21,76.6,69.1,59.4,53.3,41.3,34.7,68,38,24,29.81,29.72,25,8,25,0.00
2013-5-22,66.6,61.0,55.6,61.2,53.4,43.2,91,77,49,29.90,29.75,20,4,20,0.00
2013-5-23,62.2,54.1,43.5,52.8,34.0,18.9,94,52,22,30.43,29.90,25,8,25,0.00
2013-5-24,63.9,51.1,36.0,39.4,26.1,19.6,84,43,22,30.58,30.40,11,3,11,0.00
2013-5-25,63.3,53.8,45.5,26.2,22.8,18.9,44,30,22,30.49,30.40,17,5,17,0.00
2013-5-26,66.6,59.9,54.1,36.7,29.8,24.9,47,33,23,30.40,30.28,18,6,18,0.00
2013-5-27,57.6,53.6,52.0,52.4,42.6,24.0,99,71,32,30.28,30.02,0,0,0,0.00
2013-5-28,73.8,61.9,52.7,62.2,55.0,47.5,100,81,40,30.02,29.84,9,1,9,0.00
2013-5-29,81.1,70.5,59.5,66.9,50.5,36.8,98,57,26,30.02,29.90,25,6,25,0.00
2013-5-30,83.8,72.4,63.1,65.7,52.0,39.9,95,54,22,30.02,29.81,42,10,42,0.00
2013-5-31,70.9,65.8,64.2,59.3,53.8,44.4,84,66,40,29.90,29.87,20,10,20,0.00
2013-6-2,63.9,57.4,49.6,29.8,25.2,21.7,43,29,24,30.14,30.08,17,5,17,0.00
2013-6-3,71.1,57.8,41.7,41.0,28.8,23.6,79,37,21,30.22,30.14,8,2,11,0.00
2013-6-4,70.5,60.4,51.8,40.2,31.6,25.9,64,35,23,30.28,30.19,17,3,17,0.00
2013-6-5,66.2,56.0,51.8,49.7,41.5,33.8,82,60,31,30.25,30.08,10,3,15,0.00
2013-6-6,59.5,54.5,52.2,51.0,44.5,35.1,92,70,48,30.08,30.05,8,4,11,0.00
2013-6-8,74.3,67.1,58.8,36.3,31.2,27.5,40,27,22,30.11,30.08,9,3,9,0.00
2013-6-9,79.0,67.2,55.9,47.1,37.2,30.9,52,35,21,30.14,29.93,20,6,24,0.00
2013-6-10,82.6,71.2,58.6,58.1,44.3,38.5,84,41,22,29.96,29.87,8,3,11,0.00
2013-6-11,82.2,72.1,61.0,56.2,45.6,38.8,79,42,24,30.02,29.90,11,4,14,0.00
2013-6-16,85.8,77.8,63.3,38.7,35.7,29.5,33,22,19,29.93,29.00,15,5,15,0.00
2013-6-17,88.0,73.0,61.5,41.2,36.7,32.0,40,28,19,30.02,29.90,27,6,27,0.00
2013-6-18,73.8,63.0,53.4,39.8,32.7,22.9,55,34,21,30.14,30.02,20,6,20,0.00
2013-6-19,77.9,64.2,46.8,49.5,33.6,29.2,80,36,21,31.91,30.14,14,3,14,0.00
2013-6-22,68.4,68.0,67.1,64.0,62.0,60.5,88,81,77,18.62,18.62,17,7,17,0.00
2013-6-23,85.6,74.4,65.8,63.8,53.3,42.0,87,52,26,18.62,18.62,20,8,20,0.00
2013-6-24,79.5,72.8,68.4,65.6,54.5,42.6,87,56,28,18.62,18.62,20,6,20,0.00
2013-6-25,73.8,68.8,66.9,67.2,63.3,53.5,96,84,52,18.62,18.62,17,5,17,0.00
2013-6-28,77.7,71.6,64.8,56.6,43.4,35.1,74,38,24,29.86,28.82,21,8,21,0.00
2013-6-29,74.8,67.5,64.6,63.3,51.8,35.1,92,62,27,30.01,29.80,22,7,22,0.00
2013-6-30,79.3,72.1,58.1,40.3,34.3,27.3,48,26,21,30.21,30.12,22,7,22,0.00
2013-7-1,81.0,68.6,55.2,41.8,35.2,27.3,57,31,20,30.30,30.21,20,6,20,0.00
2013-7-2,63.0,57.8,55.8,40.2,37.5,31.6,55,47,31,30.30,30.27,5,1,5,0.00
2013-7-3,75.0,68.5,65.7,60.9,49.5,37.1,84,55,27,30.21,30.18,8,3,9,0.00
2013-7-4,82.9,72.1,61.2,61.4,44.6,33.1,89,44,20,30.24,30.18,13,4,13,0.00
2013-7-5,83.5,71.6,63.5,53.2,45.0,35.9,62,41,20,30.24,30.18,17,6,17,0.00
2013-7-6,85.6,79.9,70.2,48.0,41.9,37.0,45,27,19,30.21,30.09,14,6,15,0.00
2013-7-7,88.7,74.3,66.4,64.4,52.2,42.2,85,50,21,30.15,30.06,12,6,15,0.00
2013-7-8,89.2,77.5,72.1,67.0,55.1,46.3,84,49,24,30.12,30.06,17,7,26,0.00
2013-7-9,77.4,76.3,75.2,68.8,65.2,61.3,80,69,58,29.00,28.97,9,5,9,0.00
2013-7-10,81.0,74.5,63.1,68.2,36.4,31.2,79,26,20,29.15,29.00,14,6,25,0.00
2013-7-11,84.4,69.7,56.3,58.0,40.6,32.9,79,40,19,29.26,29.15,9,2,11,0.00
2013-7-12,82.4,66.2,55.9,57.7,42.9,33.8,83,50,20,29.29,29.23,10,2,15,0.00
2013-7-13,84.9,77.2,65.5,43.1,38.0,31.7,42,25,19,29.29,29.23,13,6,15,0.00
2013-7-14,87.6,70.7,59.4,61.4,46.4,39.7,80,46,22,29.35,29.26,12,3,15,0.00
2013-7-15,91.8,78.2,66.6,67.6,52.9,43.3,85,47,20,29.41,29.32,9,2,15,0.00
2013-7-16,91.4,82.0,73.2,72.2,56.4,46.7,86,47,23,29.41,29.35,10,4,13,0.00
2013-7-17,93.0,83.1,75.2,69.2,55.4,44.7,81,44,20,29.41,29.29,10,4,15,0.00
2013-7-18,92.8,83.6,73.0,68.8,52.6,43.0,79,39,20,29.29,29.03,15,7,20,0.00
2013-7-19,91.2,82.0,72.7,54.1,46.0,36.0,44,29,18,29.03,28.88,17,9,24,0.00
2013-7-20,87.1,73.6,62.8,49.2,41.9,36.5,55,34,19,29.12,28.97,13,4,20,0.00
2013-7-21,83.5,67.6,60.1,61.2,47.9,34.7,88,55,23,29.12,29.00,11,4,17,0.00
2013-7-22,83.8,73.1,62.6,65.6,50.7,36.7,94,53,24,29.03,28.73,26,6,32,0.00
2013-7-23,78.1,69.7,57.4,54.8,36.3,28.2,62,30,21,29.15,28.85,15,7,20,0.00
2013-7-24,75.7,64.5,52.2,53.7,36.7,29.0,80,40,21,29.21,29.15,8,3,11,0.00
2013-7-25,75.6,61.1,54.3,55.3,44.5,35.1,88,59,24,29.21,29.18,10,4,13,0.00
2013-7-27,64.2,57.4,53.1,46.2,32.6,24.2,77,41,24,29.12,29.00,19,7,19,0.00
2013-7-28,68.2,56.9,51.8,46.5,37.9,27.5,79,53,26,29.15,28.97,14,6,17,0.00
2013-7-29,75.4,63.3,53.1,44.2,35.9,31.5,70,38,21,29.29,29.15,9,4,11,0.00